Date String (YYYY-MM-DD hh:mm:ss) UTC,Instrument flags,absolute air pressure of the measurement (hPa),sample flow rate (lpm),inlet stack bypass flow (lpm),air temperature of the measurement (°C),ambient temperature measured by the external sensor (°C),aerosol sample conditioner tube jacket temperature (°C),OPC LED temperature (°C),internal box temperature (°C),relative humidity of the measurement (%),span deviation,mass concentration of particles derived from Lorenz-Mie calculation of OPC scattering (μg/m³),mass concentration of particles derived from Lorenz-Mie calculation of OPC scattering (μg/m³),mass concentration of particles derived from Lorenz-Mie calculation of OPC scattering (μg/m³)
DateTimeUTC,F1_M11,P_M11,Q1_M11,Q2_M11,T1_M11,T2_M11,T3_M11,T4_M11,T5_M11,U1_M11,ZSPAN_M11,X0_M11,X2_M11,X1_M11
2023-11-29 20:00:00,SystemResetWarning,0822.7,5.00,000.00,023.6,022.8,000.0,031.6,025.0,7.7,0000.0,0003.96,0001.92,0001.46
2023-11-29 20:01:00,SystemResetWarning,0822.5,5.00,000.00,023.6,022.9,000.0,031.6,025.0,7.4,0000.0,0003.22,0001.96,0001.49
2023-11-29 20:02:00,SystemResetWarning,0822.5,4.99,000.00,023.6,022.9,000.0,031.7,025.0,7.1,0000.0,0003.25,0001.98,0001.50
2023-11-29 20:03:00,SystemResetWarning,0822.8,5.00,000.00,023.6,022.9,000.0,031.7,025.0,7.4,0000.0,0003.30,0002.03,0001.50
2023-11-29 20:04:00,SystemResetWarning,0822.9,5.01,000.00,023.6,022.9,000.0,031.7,025.0,7.5,0000.0,0003.52,0002.02,0001.47
2023-11-29 20:05:00,SystemResetWarning,0822.6,5.00,000.00,023.6,022.9,000.0,031.7,025.0,7.7,0000.0,0003.76,0002.00,0001.45
2023-11-29 20:06:00,SystemResetWarning,0822.6,5.00,000.00,023.7,022.9,000.0,031.7,025.0,8.0,0000.0,0003.52,0001.97,0001.45
2023-11-29 20:07:00,SystemResetWarning,0822.6,5.00,000.00,023.7,022.9,000.0,031.7,025.0,8.1,0000.0,0003.60,0001.98,0001.45
2023-11-29 20:08:00,SystemResetWarning,0822.8,5.00,000.00,023.7,023.0,000.0,031.8,025.1,7.9,0000.0,0003.61,0001.96,0001.45
2023-11-29 20:09:00,SystemResetWarning,0822.9,5.00,000.00,023.7,023.0,000.0,031.8,025.1,7.8,0000.0,0003.65,0001.95,0001.45
2023-11-29 20:10:00,SystemResetWarning,0822.7,4.99,000.00,023.7,023.0,000.0,031.8,025.1,7.6,0000.0,0003.77,0001.91,0001.46
2023-11-29 20:11:00,SystemResetWarning,0822.7,5.00,000.00,023.7,023.0,000.0,031.8,025.1,7.9,0000.0,0004.38,0001.93,0001.49
2023-11-29 20:12:00,SystemResetWarning,0822.7,5.00,000.00,023.8,023.1,000.0,031.8,025.2,7.7,0000.0,0004.73,0001.95,0001.51
2023-11-29 20:13:00,SystemResetWarning,0822.6,5.00,000.00,023.8,023.1,000.0,031.9,025.2,7.9,0000.0,0004.71,0001.95,0001.53
2023-11-29 20:14:00,SystemResetWarning,0822.4,5.01,000.00,023.8,023.1,000.0,031.9,025.2,7.6,0000.0,0004.72,0001.92,0001.54
2023-11-29 20:15:00,SystemResetWarning,0822.6,4.99,000.00,023.8,023.1,000.0,031.9,025.2,7.3,0000.0,0004.62,0001.91,0001.58
2023-11-29 20:16:00,SystemResetWarning,0822.5,5.01,000.00,023.9,023.2,000.0,031.9,025.3,7.8,0000.0,0005.71,0001.90,0001.58
2023-11-29 20:17:00,SystemResetWarning,0822.4,5.00,000.00,023.9,023.2,000.0,031.9,025.3,7.8,0000.0,0005.76,0001.86,0001.57
2023-11-29 20:18:00,SystemResetWarning,0822.4,5.00,000.00,023.9,023.2,000.0,032.0,025.3,8.2,0000.0,0005.92,0001.88,0001.57
2023-11-29 20:19:00,SystemResetWarning,0822.4,4.99,000.00,023.9,023.2,000.0,032.0,025.3,8.0,0000.0,0005.87,0001.88,0001.57
2023-11-29 20:20:00,SystemResetWarning,0822.4,4.99,000.00,024.0,023.3,000.0,032.0,025.4,7.8,0000.0,0005.78,0001.86,0001.57
2023-11-29 20:21:00,SystemResetWarning,0822.5,5.01,000.00,024.0,023.3,000.0,032.0,025.4,7.3,0000.0,0005.69,0001.85,0001.55
2023-11-29 20:22:00,SystemResetWarning,0822.4,5.01,000.00,024.0,023.3,000.0,032.0,025.4,7.0,0000.0,0005.15,0001.88,0001.57
2023-11-29 20:23:00,SystemResetWarning,0822.4,5.00,000.00,024.0,023.3,000.0,032.1,025.5,7.7,0000.0,0004.74,0001.89,0001.57
2023-11-29 20:24:00,SystemResetWarning,0822.4,4.99,000.00,024.0,023.4,000.0,032.1,025.5,7.0,0000.0,0005.04,0001.94,0001.57
2023-11-29 20:25:00,SystemResetWarning,0822.4,4.99,000.00,024.1,023.4,000.0,032.1,025.5,6.4,0000.0,0005.03,0001.94,0001.56
2023-11-29 20:26:00,SystemResetWarning,0822.4,5.00,000.00,024.1,023.4,000.0,032.1,025.5,6.9,0000.0,0004.77,0001.92,0001.55
2023-11-29 20:27:00,SystemResetWarning,0822.4,5.01,000.00,024.1,023.4,000.0,032.1,025.5,7.1,0000.0,0004.00,0001.91,0001.53
2023-11-29 20:28:00,SystemResetWarning,0822.4,5.01,000.00,024.1,023.5,000.0,032.2,025.5,6.9,0000.0,0003.44,0001.91,0001.52
2023-11-29 20:29:00,SystemResetWarning,0822.4,5.01,000.00,024.2,023.5,000.0,032.2,025.6,6.7,0000.0,0003.22,0001.92,0001.52
2023-11-29 20:30:00,SystemResetWarning,0822.4,4.99,000.00,024.2,023.5,000.0,032.2,025.6,7.0,0000.0,0003.22,0001.93,0001.52
2023-11-29 20:31:00,SystemResetWarning,0822.4,5.00,000.00,024.2,023.5,000.0,032.2,025.6,7.0,0000.0,0003.41,0001.97,0001.53
2023-11-29 20:32:00,SystemResetWarning,0822.4,5.00,000.00,024.2,023.5,000.0,032.2,025.6,7.2,0000.0,0003.42,0001.96,0001.52
2023-11-29 20:33:00,SystemResetWarning,0822.4,5.00,000.00,024.2,023.6,000.0,032.3,025.6,7.5,0000.0,0003.37,0001.91,0001.50
2023-11-29 20:34:00,SystemResetWarning,0822.3,5.01,000.00,024.3,023.6,000.0,032.3,025.6,7.6,0000.0,0003.50,0001.95,0001.51
2023-11-29 20:35:00,SystemResetWarning,0822.4,5.01,000.00,024.3,023.6,000.0,032.3,025.7,7.6,0000.0,0003.52,0001.98,0001.50
2023-11-29 20:36:00,SystemResetWarning,0822.4,5.00,000.00,024.3,023.6,000.0,032.3,025.7,7.5,0000.0,0003.67,0002.04,0001.52
2023-11-29 20:37:00,SystemResetWarning,0822.4,4.99,000.00,024.3,023.6,000.0,032.4,025.7,7.3,0000.0,0003.71,0002.06,0001.53
2023-11-29 20:38:00,SystemResetWarning,0822.4,4.99,000.00,024.3,023.6,000.0,032.4,025.7,7.2,0000.0,0003.82,0002.14,0001.56
2023-11-29 20:39:00,SystemResetWarning,0822.4,5.00,000.00,024.4,023.6,000.0,032.4,025.7,7.0,0000.0,0004.65,0002.28,0001.59
2023-11-29 20:40:00,SystemResetWarning,0822.3,5.00,000.00,024.4,023.7,000.0,032.4,025.8,7.0,0000.0,0005.54,0002.33,0001.62
2023-11-29 20:41:00,SystemResetWarning,0822.2,5.01,000.00,024.4,023.7,000.0,032.4,025.8,7.2,0000.0,0005.49,0002.30,0001.62
2023-11-29 20:42:00,SystemResetWarning,0822.2,4.99,000.00,024.4,023.7,000.0,032.5,025.9,7.2,0000.0,0005.36,0002.29,0001.63
2023-11-29 20:43:00,SystemResetWarning,0822.3,4.99,000.00,024.4,023.7,000.0,032.5,025.9,7.1,0000.0,0005.45,0002.37,0001.67
2023-11-29 20:44:00,SystemResetWarning,0822.4,4.99,000.00,024.5,023.7,000.0,032.5,025.9,7.4,0000.0,0005.51,0002.42,0001.69
2023-11-29 20:45:00,SystemResetWarning,0822.3,4.99,000.00,024.5,023.8,000.0,032.5,025.9,7.2,0000.0,0005.52,0002.42,0001.69
2023-11-29 20:46:00,SystemResetWarning,0822.2,5.00,000.00,024.5,023.8,000.0,032.5,026.0,7.6,0000.0,0005.44,0002.41,0001.71
2023-11-29 20:47:00,SystemResetWarning,0822.2,5.00,000.00,024.5,023.8,000.0,032.6,026.0,7.4,0000.0,0005.27,0002.35,0001.71
2023-11-29 20:48:00,SystemResetWarning,0822.3,5.00,000.00,024.5,023.8,000.0,032.6,026.0,7.6,0000.0,0005.36,0002.36,0001.72
2023-11-29 20:49:00,SystemResetWarning,0822.3,5.01,000.00,024.6,023.9,000.0,032.6,026.0,7.6,0000.0,0005.23,0002.32,0001.70
2023-11-29 20:50:00,SystemResetWarning,0822.1,5.00,000.00,024.6,023.9,000.0,032.6,026.0,7.6,0000.0,0004.74,0002.25,0001.70
2023-11-29 20:51:00,SystemResetWarning,0822.1,5.00,000.00,024.6,023.9,000.0,032.6,026.0,6.9,0000.0,0003.58,0002.22,0001.71
2023-11-29 20:52:00,SystemResetWarning,0822.1,5.00,000.00,024.6,023.9,000.0,032.7,026.0,8.1,0000.0,0003.60,0002.24,0001.72
2023-11-29 20:53:00,SystemResetWarning,0822.0,4.99,000.00,024.6,023.9,000.0,032.7,026.0,7.9,0000.0,0003.62,0002.24,0001.71
2023-11-29 20:54:00,SystemResetWarning,0822.1,5.00,000.00,024.6,023.9,000.0,032.7,026.0,7.6,0000.0,0003.86,0002.20,0001.71
2023-11-29 20:55:00,SystemResetWarning,0822.1,5.00,000.00,024.7,023.9,000.0,032.7,026.1,7.3,0000.0,0004.49,0002.19,0001.71
2023-11-29 20:56:00,SystemResetWarning,0822.0,5.00,000.00,024.7,023.9,000.0,032.7,026.1,7.9,0000.0,0004.33,0002.14,0001.70
2023-11-29 20:57:00,SystemResetWarning,0822.0,5.00,000.00,024.7,023.9,000.0,032.8,026.1,8.0,0000.0,0004.47,0002.06,0001.65
2023-11-29 20:58:00,SystemResetWarning,0822.0,5.00,000.00,024.7,023.9,000.0,032.8,026.1,7.7,0000.0,0005.60,0002.09,0001.64
2023-11-29 20:59:00,SystemResetWarning,0822.0,5.00,000.00,024.7,024.0,000.0,032.8,026.1,7.8,0000.0,0005.63,0002.13,0001.64
